When you browse on this site, cookies collect data to enhance your experience and personalize the content and advertising you see.
Visit our Privacy Policy to learn more. By continuing to use the site, you agree to this use of cookies and data.
  • In Deutschland
  • Länderverzeichnis
  • Für 7 Tage
  • Wassertemperatur
  • Wetterkarte
  • Widgets
  • user-avatar
    Anmelden

    Stündliche Wetter Mendoza

    Heute, 27 Mai, Mittwoch

    Zeit Temperatur Niederschläge Wind Luftdruck Luftfeuchtigkeit
    00:00 +14°C° 0 mm 1 m/S 696 mmHg 41%
    01:00 +14°C° 0 mm 1 m/S 695 mmHg 42%
    02:00 +13°C° 0 mm 1 m/S 695 mmHg 43%
    03:00 +13°C° 0 mm 1 m/S 695 mmHg 44%
    04:00 +12°C° 0 mm 1 m/S 695 mmHg 45%
    05:00 +13°C° 0 mm 1 m/S 695 mmHg 43%
    06:00 +13°C° 0 mm 1 m/S 696 mmHg 42%
    07:00 +13°C° 0 mm 1 m/S 696 mmHg 41%
    08:00 +16°C° 0 mm 2 m/S 697 mmHg 35%
    09:00 +19°C° 0 mm 3 m/S 697 mmHg 29%
    10:00 +22°C° 0 mm 4 m/S 698 mmHg 23%
    11:00 +22°C° 0 mm 5 m/S 698 mmHg 23%
    12:00 +23°C° 0 mm 5 m/S 697 mmHg 23%
    13:00 +23°C° 0 mm 6 m/S 697 mmHg 23%
    14:00 +22°C° 0 mm 6 m/S 697 mmHg 25%
    15:00 +21°C° 0 mm 5 m/S 697 mmHg 27%
    16:00 +21°C° 0 mm 5 m/S 697 mmHg 28%
    17:00 +19°C° 0 mm 4 m/S 697 mmHg 31%
    18:00 +18°C° 0 mm 3 m/S 697 mmHg 34%
    19:00 +16°C° 0 mm 3 m/S 697 mmHg 36%
    20:00 +16°C° 0 mm 2 m/S 697 mmHg 37%
    21:00 +15°C° 0 mm 2 m/S 697 mmHg 38%
    22:00 +15°C° 0 mm 2 m/S 697 mmHg 39%
    23:00 +14°C° 0 mm 2 m/S 697 mmHg 42%

    Morgen, 28 Mai, Donnerstag

    Zeit Temperatur Niederschläge Wind Luftdruck Luftfeuchtigkeit
    00:00 +14°C° 0 mm 2 m/S 696 mmHg 44%
    01:00 +13°C° 0 mm 2 m/S 696 mmHg 46%
    02:00 +13°C° 0 mm 1 m/S 695 mmHg 48%
    03:00 +12°C° 0 mm 1 m/S 695 mmHg 50%
    04:00 +12°C° 0 mm 1 m/S 695 mmHg 53%
    05:00 +12°C° 0 mm 1 m/S 695 mmHg 54%
    06:00 +12°C° 0 mm 1 m/S 695 mmHg 55%
    07:00 +12°C° 0 mm 1 m/S 695 mmHg 56%
    08:00 +14°C° 0 mm 1 m/S 695 mmHg 51%
    09:00 +16°C° 0 mm 1 m/S 696 mmHg 46%
    10:00 +18°C° 0 mm 1 m/S 696 mmHg 41%
    11:00 +19°C° 0 mm 1 m/S 695 mmHg 39%
    12:00 +20°C° 0 mm 1 m/S 695 mmHg 38%
    13:00 +19°C° 0 mm 2 m/S 694 mmHg 36%
    14:00 +20°C° 0 mm 1 m/S 694 mmHg 37%
    15:00 +20°C° 0 mm 1 m/S 694 mmHg 37%
    16:00 +20°C° 0 mm 1 m/S 694 mmHg 38%
    17:00 +19°C° 0 mm 1 m/S 694 mmHg 41%
    18:00 +16°C° 0 mm 1 m/S 695 mmHg 43%
    19:00 +15°C° 0 mm 1 m/S 695 mmHg 46%
    20:00 +14°C° 0 mm 1 m/S 695 mmHg 48%
    21:00 +14°C° 0 mm 1 m/S 695 mmHg 49%
    22:00 +13°C° 0 mm 1 m/S 695 mmHg 50%
    23:00 +13°C° 0 mm 1 m/S 695 mmHg 52%

    übermorgen, 29 Mai, Freitag

    Zeit Temperatur Niederschläge Wind Luftdruck Luftfeuchtigkeit
    00:00 +13°C° 0 mm 1 m/S 695 mmHg 54%
    01:00 +12°C° 0 mm 1 m/S 695 mmHg 55%
    02:00 +12°C° 0 mm 1 m/S 695 mmHg 57%
    03:00 +10°C° 0 mm 2 m/S 694 mmHg 59%
    04:00 +10°C° 0 mm 2 m/S 694 mmHg 62%
    05:00 +10°C° 0 mm 2 m/S 695 mmHg 63%
    06:00 +10°C° 0 mm 2 m/S 695 mmHg 63%
    07:00 +10°C° 0 mm 2 m/S 695 mmHg 64%
    08:00 +11°C° 0 mm 3 m/S 695 mmHg 62%
    09:00 +12°C° 0 mm 3 m/S 696 mmHg 60%
    10:00 +13°C° 0 mm 4 m/S 696 mmHg 58%
    11:00 +13°C° 0 mm 4 m/S 695 mmHg 58%
    12:00 +14°C° 0 mm 4 m/S 695 mmHg 59%
    13:00 +14°C° 0 mm 4 m/S 695 mmHg 59%
    14:00 +13°C° 0 mm 5 m/S 695 mmHg 64%
    15:00 +12°C° 0 mm 5 m/S 695 mmHg 69%
    16:00 +10°C° 0 mm 6 m/S 696 mmHg 74%
    17:00 +9°C° 0 mm 6 m/S 697 mmHg 75%
    18:00 +8°C° 0 mm 6 m/S 697 mmHg 76%
    19:00 +7°C° 0 mm 6 m/S 698 mmHg 76%
    20:00 +6°C° 0 mm 5 m/S 699 mmHg 77%
    21:00 +6°C° 0 mm 5 m/S 699 mmHg 78%
    22:00 +5°C° 0 mm 5 m/S 700 mmHg 78%
    23:00 +5°C° 0 mm 4 m/S 700 mmHg 76%

    30 Mai, Samstag

    Zeit Temperatur Niederschläge Wind Luftdruck Luftfeuchtigkeit
    00:00 +5°C° 0 mm 4 m/S 700 mmHg 73%
    01:00 +5°C° 0 mm 3 m/S 700 mmHg 70%
    02:00 +5°C° 0 mm 3 m/S 700 mmHg 69%
    03:00 +6°C° 0 mm 2 m/S 701 mmHg 69%
    04:00 +7°C° 0 mm 1 m/S 701 mmHg 68%
    05:00 +6°C° 0 mm 2 m/S 701 mmHg 67%
    06:00 +5°C° 0 mm 2 m/S 701 mmHg 67%
    07:00 +5°C° 0 mm 2 m/S 702 mmHg 66%
    08:00 +6°C° 0 mm 2 m/S 702 mmHg 61%
    09:00 +7°C° 0 mm 3 m/S 702 mmHg 55%
    10:00 +7°C° 0 mm 3 m/S 702 mmHg 50%
    11:00 +8°C° 0 mm 3 m/S 702 mmHg 47%
    12:00 +9°C° 0 mm 3 m/S 701 mmHg 45%
    13:00 +8°C° 0 mm 4 m/S 701 mmHg 43%
    14:00 +9°C° 0 mm 3 m/S 701 mmHg 42%
    15:00 +9°C° 0 mm 3 m/S 700 mmHg 42%
    16:00 +9°C° 0 mm 2 m/S 700 mmHg 41%
    17:00 +9°C° 0 mm 2 m/S 701 mmHg 43%
    18:00 +8°C° 0 mm 2 m/S 701 mmHg 45%
    19:00 +8°C° 0 mm 2 m/S 701 mmHg 46%
    20:00 +8°C° 0 mm 2 m/S 701 mmHg 46%
    21:00 +8°C° 0 mm 2 m/S 701 mmHg 47%
    22:00 +8°C° 0 mm 1 m/S 701 mmHg 47%
    23:00 +8°C° 0 mm 1 m/S 701 mmHg 47%

    31 Mai, Sonntag

    Zeit Temperatur Niederschläge Wind Luftdruck Luftfeuchtigkeit
    00:00 +8°C° 0 mm 1 m/S 701 mmHg 48%
    01:00 +7°C° 0 mm 2 m/S 701 mmHg 49%
    02:00 +8°C° 0 mm 1 m/S 700 mmHg 52%
    03:00 +8°C° 0 mm 1 m/S 700 mmHg 55%
    04:00 +6°C° 0 mm 0 m/S 700 mmHg 58%
    05:00 +7°C° 0 mm 1 m/S 700 mmHg 57%
    06:00 +8°C° 0 mm 1 m/S 700 mmHg 56%
    07:00 +8°C° 0 mm 1 m/S 700 mmHg 55%
    08:00 +8°C° 0 mm 2 m/S 700 mmHg 51%
    09:00 +9°C° 0 mm 2 m/S 700 mmHg 47%
    10:00 +11°C° 0 mm 3 m/S 701 mmHg 43%
    11:00 +12°C° 0 mm 3 m/S 700 mmHg 41%
    12:00 +13°C° 0 mm 3 m/S 700 mmHg 39%
    13:00 +14°C° 0 mm 3 m/S 699 mmHg 37%
    14:00 +13°C° 0 mm 3 m/S 699 mmHg 37%
    15:00 +13°C° 0 mm 3 m/S 699 mmHg 38%
    16:00 +14°C° 0 mm 2 m/S 699 mmHg 38%
    17:00 +13°C° 0 mm 2 m/S 699 mmHg 41%
    18:00 +12°C° 0 mm 2 m/S 699 mmHg 44%
    19:00 +10°C° 0 mm 2 m/S 699 mmHg 46%
    20:00 +10°C° 0 mm 2 m/S 699 mmHg 47%
    21:00 +10°C° 0 mm 2 m/S 700 mmHg 48%
    22:00 +10°C° 0 mm 2 m/S 700 mmHg 48%
    23:00 +9°C° 0 mm 2 m/S 700 mmHg 50%

    1 Juni, Montag

    Zeit Temperatur Niederschläge Wind Luftdruck Luftfeuchtigkeit
    00:00 +9°C° 0 mm 2 m/S 700 mmHg 52%
    01:00 +9°C° 0 mm 1 m/S 700 mmHg 54%
    02:00 +9°C° 0 mm 1 m/S 700 mmHg 55%
    03:00 +8°C° 0 mm 1 m/S 699 mmHg 56%
    04:00 +8°C° 0 mm 1 m/S 699 mmHg 57%
    05:00 +8°C° 0 mm 1 m/S 700 mmHg 56%
    06:00 +8°C° 0 mm 1 m/S 700 mmHg 55%
    07:00 +8°C° 0 mm 1 m/S 700 mmHg 54%
    08:00 +10°C° 0 mm 1 m/S 701 mmHg 49%
    09:00 +12°C° 0 mm 1 m/S 701 mmHg 43%
    10:00 +14°C° 0 mm 2 m/S 701 mmHg 38%
    11:00 +15°C° 0 mm 2 m/S 701 mmHg 36%
    12:00 +16°C° 0 mm 2 m/S 700 mmHg 34%
    13:00 +19°C° 0 mm 1 m/S 700 mmHg 32%
    14:00 +18°C° 0 mm 1 m/S 700 mmHg 32%
    15:00 +18°C° 0 mm 1 m/S 699 mmHg 33%
    16:00 +18°C° 0 mm 1 m/S 699 mmHg 34%
    17:00 +15°C° 0 mm 1 m/S 699 mmHg 37%
    18:00 +14°C° 0 mm 1 m/S 699 mmHg 41%
    19:00 +11°C° 0 mm 0 m/S 699 mmHg 44%
    20:00 +12°C° 0 mm 1 m/S 699 mmHg 45%
    21:00 +12°C° 0 mm 1 m/S 699 mmHg 46%
    22:00 +11°C° 0 mm 1 m/S 699 mmHg 46%
    23:00 +11°C° 0 mm 1 m/S 698 mmHg 51%
    Mehr zeigen